Hourly Weather Roundup
Issued by NWS Central Illinois

Home | Current Version | Previous Version | Text Only | Print | Product List | Glossary On
Versions: 1 2 3 4 5 6 7 8 9 10 11 12 13 14 15 16 17 18 19 20 21 22 23 24 25 26 27 28 29 30 31 32 33 34 35 36 37 38 39 40 41 42 43 44 45 46 47 48 49 50
000
NZUS43 KILX 270610
HWRILX

AREA WEATHER ROUNDUP
NATIONAL WEATHER SERVICE, LINCOLN IL
100 AM CDT WED JUL 27 2016


CITY           SKY/WX    TMP DP  RH WIND       PRES   REMARKS
BLOOMINGTON    CLEAR     72  68  87 CALM      30.03F
6HR MIN TEMP:  71; 6HR MAX TEMP:  81;

CHAMPAIGN      CLEAR     69  65  86 E6        30.02F
6HR MIN TEMP:  67; 6HR MAX TEMP:  81;

DANVILLE       CLEAR     66  65  99 CALM      30.00S
6HR MIN TEMP:  66; 6HR MAX TEMP:  82;

DECATUR        CLEAR     69  66  90 CALM      30.02F
6HR MIN TEMP:  67; 6HR MAX TEMP:  82;

EFFINGHAM      PTCLDY    72  72 100 E3        30.01F
FLORA          PTCLDY    76  75  95 CALM      29.99F
6HR MIN TEMP:  76; 6HR MAX TEMP:  84;

GALESBURG      CLEAR     67  65  92 CALM      30.02S
JACKSONVILLE   MOCLDY    73  70  90 CALM      30.00F
6HR MIN TEMP:  72; 6HR MAX TEMP:  83;

LACON          CLEAR     70  68  94 CALM      30.00F
6HR MIN TEMP:  70; 6HR MAX TEMP:  84;

LAWRENCEVILLE  PTCLDY    75  73  93 CALM      29.99F
6HR MIN TEMP:  75; 6HR MAX TEMP:  84;

LITCHFIELD       N/A    N/A N/A N/A MISG        N/A
$$


CITY           SKY/WX    TMP DP  RH WIND       PRES   REMARKS
LINCOLN        CLEAR     69  69  97 CALM      30.01S
6HR MIN TEMP:  69; 6HR MAX TEMP:  83;

MACOMB         CLEAR     67  66  96 CALM      30.03S
MATTOON        PTCLDY    70  66  87 CALM      30.00F
6HR MIN TEMP:  69; 6HR MAX TEMP:  81;

MT CARMEL AP   PTCLDY    74  72  96 CALM      29.99S
6HR MIN TEMP:  73; 6HR MAX TEMP:  82;

OLNEY-NOBLE AP CLOUDY    72  72 100 CALM      30.00S
PARIS          CLEAR     67  67 100 CALM      30.02F
6HR MIN TEMP:  67; 6HR MAX TEMP:  80;

PEORIA         CLEAR     74  71  91 CALM      30.01S
6HR MIN TEMP:  73; 6HR MAX TEMP:  85;

PONTIAC        CLEAR     70  70 100 CALM      30.03S FOG
RANTOUL        NOT AVBL
ROBINSON       PTCLDY    70  70 100 CALM      30.01S FOG
6HR MIN TEMP:  69; 6HR MAX TEMP:  80;

SPRINGFIELD    CLOUDY    74  70  87 E5        30.01F
6HR MIN TEMP:  73; 6HR MAX TEMP:  84;

TAYLORVILLE    PTCLDY    71  69  93 MISG      30.00F
$$

...REGIONAL REPORTS...


CITY           SKY/WX    TMP DP  RH WIND       PRES   REMARKS
CHICAGO O`HARE CLEAR     74  63  68 SW3       30.00F
KANKAKEE       CLEAR     70  69  95 CALM      30.02F
MOLINE         CLEAR     68  65  90 CALM      30.00F
MOUNT STERLING   N/A     71  68  93 CALM      30.00S
MOUNT VERNON   PTCLDY    73  70  88 MISG      29.99F
PITTSFIELD     PTCLDY    74  72  94 CALM      30.01F
QUINCY         MOCLDY    73  70  90 NE3       30.00S
ROCKFORD       CLEAR     68  65  90 CALM      30.02S
$$


CITY           SKY/WX    TMP DP  RH WIND       PRES   REMARKS
BURLINGTON     CLEAR     74  68  81 E3        30.01S
CEDAR RAPIDS   CLEAR     66  66 100 CALM      30.01F
DES MOINES     CLEAR     75  65  70 S5        30.01F
KIRKSVILLE     CLEAR     64  62  93 N5        30.02F
OTTUMWA        CLEAR     65  63  93 CALM      30.00F
ST LOUIS       PTCLDY    79  75  87 NE6       29.99S HX  83
$$


CITY           SKY/WX    TMP DP  RH WIND       PRES   REMARKS
TERRE HAUTE    PTCLDY    70  67  90 N3        30.00F
EVANSVILLE     CLEAR     78  74  87 CALM      29.98F HX  81
INDIANAPOLIS   CLOUDY    73  66  78 CALM      30.02F
LAFAYETTE      CLEAR     66  66 100 NW3       30.01F
MADISON        CLEAR     68  65  90 NW3       30.01S
MILWAUKEE      CLEAR     74  64  71 SW6       29.99F
$$






USA.gov is the U.S. government's official web portal to all federal, state and local government web resources and services.